Location: Ajisawe
(8.4333°N, 4.3833°E)
Time: 23:05:54
(UTC+00:00)

Centaur AC-72 - Pass Details

Date: 07 June 2020
Orbit: 1121 x 35235 km, 19.1° (Epoch: 10 July)

Event Time Altitude Azimuth Distance (km) Brightness Sun altitude
Rises 16:48:23 0° 271° (W) 13,158 9.7 15.4°
Reaches altitude 10° 16:58:00 10° 267° (W) 14,444 9.9 13.2°
Drops below altitude 10° 22:57:01 10° 247° (WSW) 37,708 10.5 -57.0°
Enters shadow 01:56:19 10° 248° (WSW) 15,050 8.1 -44.6°
Exits shadow 02:34:24 68° 230° (SW) 2,612 4.2 -37.4°
Maximum altitude 02:36:24 81° 162° (SSE) 2,145 4.0 -37.0°
Sets 02:45:12 0° 75° (ENE) 4,032 6.6 -35.3°
